EW4725 Weather Reports


Display with metric or nautical units.
time (UTC)temp
F
wind
direction
speed
MPH
gust
MPH
rain 1hr
in
rain 24hr
in
rain mn
in
humidity
%
barometer
mb
20260903202416 79 148 6.0 10.0 0.00 0.00 0.00 59 1012.9
20260903201916 79 148 5.0 7.0 0.00 0.00 0.00 59 1012.8
20260903201436 79 238 4.0 7.0 0.00 0.00 0.00 61 1013.0
20260903200936 78 148 4.0 6.0 0.00 0.00 0.00 59 1013.0
20260903200416 78 215 4.0 7.0 0.00 0.00 0.00 59 1013.1
20260903195916 79 125 5.0 7.0 0.00 0.00 0.00 60 1013.1
20260903195416 78 148 5.0 7.0 0.00 0.00 0.00 61 1013.1
20260903194916 78 170 5.0 7.0 0.00 0.00 0.00 61 1013.1
20260903194416 78 170 6.0 9.0 0.00 0.00 0.00 62 1013.2
20260903193936 78 125 3.0 6.0 0.00 0.00 0.00 60 1013.3
20260903193416 78 148 6.0 9.0 0.00 0.00 0.00 61 1013.4
20260903192916 78 170 5.0 8.0 0.00 0.00 0.00 59 1013.5
20260903192416 79 238 3.0 5.0 0.00 0.00 0.00 59 1013.5
20260903191916 79 238 4.0 7.0 0.00 0.00 0.00 59 1013.6
20260903191416 79 125 1.0 4.0 0.00 0.00 0.00 61 1013.6
20260903190916 79 148 7.0 10.0 0.00 0.00 0.00 60 1013.6
20260903190416 79 215 4.0 7.0 0.00 0.00 0.00 60 1013.7
20260903185916 78 125 1.0 2.0 0.00 0.00 0.00 62 1013.7
20260903185436 77 283 5.0 7.0 0.00 0.00 0.00 61 1013.8
20260903184916 77 215 4.0 7.0 0.00 0.00 0.00 62 1014.0
20260903184416 77 148 2.0 3.0 0.00 0.00 0.00 64 1014.1
20260903183916 76 215 3.0 7.0 0.00 0.00 0.00 65 1014.1
20260903183436 76 148 3.0 4.0 0.00 0.00 0.00 65 1014.1
20260903182916 76 170 3.0 5.0 0.00 0.00 0.00 66 1014.2
20260903182416 76 103 6.0 7.0 0.00 0.00 0.00 66 1014.2
20260903181916 76 125 6.0 10.0 0.00 0.00 0.00 65 1014.3
20260903181416 76 125 3.0 6.0 0.00 0.00 0.00 65 1014.3
20260903180916 76 125 3.0 6.0 0.00 0.00 0.00 66 1014.3
20260903180416 75 125 4.0 10.0 0.00 0.00 0.00 68 1014.2
20260903175936 75 148 6.0 8.0 0.00 0.00 0.00 68 1014.1
20260903175416 76 125 4.0 6.0 0.00 0.00 0.00 66 1014.2
20260903174916 76 125 2.0 6.0 0.00 0.00 0.00 66 1014.2
20260903174416 76 193 3.0 5.0 0.00 0.00 0.00 66 1014.2
20260903173916 76 148 3.0 5.0 0.00 0.00 0.00 67 1014.2
20260903173416 76 125 4.0 7.0 0.00 0.00 0.00 66 1014.2
20260903172916 76 35 1.0 3.0 0.00 0.00 0.00 68 1014.3
20260903172416 75 103 5.0 7.0 0.00 0.00 0.00 67 1014.3
20260903171918 74 148 3.0 4.0 0.00 0.00 0.00 68 1014.3
20260903171416 75 125 7.0 10.0 0.00 0.00 0.00 67 1014.3
20260903170916 74 125 1.0 4.0 0.00 0.00 0.00 68 1014.3
20260903170436 74 125 4.0 10.0 0.00 0.00 0.00 68 1014.2
20260903165916 75 103 4.0 6.0 0.00 0.00 0.00 68 1014.2
20260903165416 74 125 2.0 4.0 0.00 0.00 0.00 70 1014.2
20260903164916 74 103 5.0 8.0 0.00 0.00 0.00 68 1014.2
20260903164416 75 148 4.0 7.0 0.00 0.00 0.00 68 1014.2
20260903163916 74 148 2.0 4.0 0.00 0.00 0.00 70 1014.2
20260903163416 74 125 5.0 7.0 0.00 0.00 0.00 69 1014.2
20260903162915 74 170 2.0 3.0 0.00 0.00 0.00 70 1014.2
20260903162416 73 125 4.0 5.0 0.00 0.00 0.00 70 1014.2
20260903161936 73 238 1.0 4.0 0.00 0.00 0.00 72 1014.2
20260903161415 73 170 4.0 6.0 0.00 0.00 0.00 72 1014.3
20260903160916 73 238 2.0 4.0 0.00 0.00 0.00 72 1014.2
20260903160456 73 0.0 1.0 0.00 0.00 0.00 73 1014.3
20260903155916 73 125 4.0 6.0 0.00 0.00 0.00 72 1014.3
20260903155415 72 125 1.0 2.0 0.00 0.00 0.00 74 1014.3
20260903154916 71 148 2.0 3.0 0.00 0.00 0.00 75 1014.4
20260903154415 71 58 3.0 5.0 0.00 0.00 0.00 75 1014.3
20260903153416 69 58 1.0 2.0 0.00 0.00 0.00 78 1014.2
20260903152916 68 0.0 1.0 0.00 0.00 0.00 78 1014.3
20260903152415 68 125 1.0 2.0 0.00 0.00 0.00 78 1014.3
20260903151915 68 125 1.0 2.0 0.00 0.00 0.00 79 1014.2
20260903151416 68 80 1.0 3.0 0.00 0.00 0.00 79 1014.3
20260903150915 68 0.0 1.0 0.00 0.00 0.00 79 1014.2
20260903150436 67 0.0 1.0 0.00 0.00 0.00 80 1014.3
20260903145916 67 125 2.0 3.0 0.00 0.00 0.00 80 1014.3
20260903144916 66 0.0 1.0 0.00 0.00 0.00 81 1014.3
20260903144416 66 0.0 0.0 0.00 0.00 0.00 82 1014.3
20260903143956 66 0.0 0.0 0.00 0.00 0.00 82 1014.2
20260903143415 65 0.0 0.0 0.00 0.00 0.00 83 1014.1
20260903142915 65 0.0 0.0 0.00 0.00 0.00 84 1014.0
20260903142416 65 0.0 0.0 0.00 0.00 0.00 84 1013.9
20260903141916 64 0.0 0.0 0.00 0.00 0.00 85 1013.8
20260903141435 64 0.0 0.0 0.00 0.00 0.00 85 1013.7
20260903140915 64 0.0 0.0 0.00 0.00 0.00 85 1013.7
20260903140415 64 0.0 0.0 0.00 0.00 0.00 84 1013.6
20260903135935 64 0.0 0.0 0.00 0.00 0.00 85 1013.6
20260903135416 64 0.0 0.0 0.00 0.00 0.00 84 1013.6
20260903134935 64 0.0 0.0 0.00 0.00 0.00 84 1013.5
20260903134415 64 0.0 0.0 0.00 0.00 0.00 84 1013.6
20260903133915 64 0.0 0.0 0.00 0.00 0.00 84 1013.6
20260903133415 64 0.0 0.0 0.00 0.00 0.00 85 1013.6
20260903132916 64 0.0 0.0 0.00 0.00 0.00 85 1013.5
20260903132416 64 0.0 0.0 0.00 0.00 0.00 85 1013.5
20260903131915 64 0.0 0.0 0.00 0.00 0.00 85 1013.5
20260903131415 64 0.0 0.0 0.00 0.00 0.00 85 1013.5
20260903130915 65 0.0 0.0 0.00 0.00 0.00 86 1013.5
20260903130415 64 0.0 0.0 0.00 0.00 0.00 85 1013.5
20260903125915 64 0.0 0.0 0.00 0.00 0.00 85 1013.5
20260903125415 64 0.0 0.0 0.00 0.00 0.00 85 1013.6
20260903124915 64 0.0 0.0 0.00 0.00 0.00 86 1013.6
20260903124416 64 0.0 0.0 0.00 0.00 0.00 86 1013.5
20260903123935 64 0.0 0.0 0.00 0.00 0.00 86 1013.5
20260903123415 64 0.0 0.0 0.00 0.00 0.00 86 1013.5
20260903122915 64 0.0 0.0 0.00 0.00 0.00 86 1013.4
20260903122415 64 0.0 0.0 0.00 0.00 0.00 86 1013.5
20260903121915 64 0.0 0.0 0.00 0.00 0.00 85 1013.5
20260903121436 65 0.0 0.0 0.00 0.00 0.00 85 1013.5
20260903120915 65 0.0 0.0 0.00 0.00 0.00 85 1013.5
20260903120415 65 0.0 0.0 0.00 0.00 0.00 85 1013.5
20260903115936 65 0.0 0.0 0.00 0.00 0.00 85 1013.6
20260903115415 65 0.0 0.0 0.00 0.00 0.00 85 1013.6
20260903114915 65 0.0 0.0 0.00 0.00 0.00 85 1013.6
20260903114415 65 0.0 1.0 0.00 0.00 0.00 85 1013.6
20260903113955 65 0.0 0.0 0.00 0.00 0.00 85 1013.7
20260903113415 65 125 1.0 2.0 0.00 0.00 0.00 85 1013.8
20260903112915 65 125 2.0 3.0 0.00 0.00 0.00 85 1013.8
20260903112435 65 125 1.0 1.0 0.00 0.00 0.00 85 1013.8
20260903111915 65 125 2.0 4.0 0.00 0.00 0.00 85 1013.8
20260903111415 65 0.0 1.0 0.00 0.00 0.00 86 1013.8
20260903110915 65 125 1.0 2.0 0.00 0.00 0.00 86 1013.8
20260903110415 65 0.0 1.0 0.00 0.00 0.00 86 1013.8
20260903105915 66 125 1.0 2.0 0.00 0.00 0.00 86 1013.9
20260903105415 66 125 1.0 2.0 0.00 0.00 0.00 87 1013.9
20260903104915 66 125 1.0 1.0 0.00 0.00 0.00 87 1013.9
20260903104417 66 125 1.0 2.0 0.00 0.00 0.00 87 1013.9
20260903103917 66 125 1.0 4.0 0.00 0.00 0.00 87 1014.0
20260903103417 66 103 1.0 3.0 0.00 0.00 0.00 88 1014.0
20260903102916 66 0.0 1.0 0.00 0.00 0.00 88 1013.9
20260903102437 66 0.0 2.0 0.00 0.00 0.00 88 1013.9
20260903101917 66 80 2.0 3.0 0.00 0.00 0.00 88 1013.9
20260903101417 66 0.0 1.0 0.00 0.00 0.00 88 1014.0
20260903100915 66 125 1.0 1.0 0.00 0.00 0.00 88 1014.0
20260903100417 66 0.0 1.0 0.00 0.00 0.00 88 1014.0
20260903095917 66 0.0 1.0 0.00 0.00 0.00 88 1014.0
20260903095417 66 0.0 1.0 0.00 0.00 0.00 88 1014.0
20260903094917 66 0.0 0.0 0.00 0.00 0.00 87 1014.0
20260903094437 66 0.0 0.0 0.00 0.00 0.00 87 1014.1
20260903093937 66 0.0 0.0 0.00 0.00 0.00 86 1014.1
20260903093417 67 0.0 0.0 0.00 0.00 0.00 87 1014.1
20260903092917 67 0.0 0.0 0.00 0.00 0.00 86 1014.1
20260903092417 66 125 1.0 2.0 0.00 0.00 0.00 86 1014.2
20260903091917 66 0.0 0.0 0.00 0.00 0.00 86 1014.2
20260903091417 66 0.0 0.0 0.00 0.00 0.00 85 1014.3
20260903090917 67 0.0 0.0 0.00 0.00 0.00 85 1014.3
20260903090417 67 0.0 0.0 0.00 0.00 0.00 85 1014.3
20260903085917 67 0.0 0.0 0.00 0.00 0.00 85 1014.4
20260903085417 67 0.0 0.0 0.00 0.00 0.00 85 1014.4
20260903084917 67 0.0 0.0 0.00 0.00 0.00 85 1014.5
20260903084417 67 0.0 0.0 0.00 0.00 0.00 85 1014.5
20260903083917 67 0.0 0.0 0.00 0.00 0.00 85 1014.6
20260903083417 67 0.0 0.0 0.00 0.00 0.00 85 1014.6
20260903082917 67 215 1.0 3.0 0.00 0.00 0.00 85 1014.5
20260903082417 67 0.0 0.0 0.00 0.00 0.00 85 1014.5
20260903081917 67 0.0 1.0 0.00 0.00 0.00 86 1014.6
20260903081417 67 0.0 1.0 0.00 0.00 0.00 87 1014.6
20260903080917 67 193 2.0 3.0 0.00 0.00 0.00 87 1014.6
20260903080437 66 0.0 0.0 0.00 0.00 0.00 86 1014.7
20260903075917 67 0.0 0.0 0.00 0.00 0.00 86 1014.7
20260903075417 66 0.0 0.0 0.00 0.00 0.00 85 1014.8
20260903074917 67 0.0 0.0 0.00 0.00 0.00 84 1014.8
20260903074417 67 0.0 0.0 0.00 0.00 0.00 84 1014.7
20260903073917 67 0.0 0.0 0.00 0.00 0.00 83 1014.7
20260903073417 67 0.0 0.0 0.00 0.00 0.00 83 1014.7
20260903072917 68 0.0 0.0 0.00 0.00 0.00 82 1014.6
20260903072457 68 0.0 0.0 0.00 0.00 0.00 82 1014.6
20260903071917 68 0.0 0.0 0.00 0.00 0.00 82 1014.6
20260903071417 68 125 1.0 2.0 0.00 0.00 0.00 82 1014.6
20260903070937 68 125 2.0 2.0 0.00 0.00 0.00 81 1014.6
20260903070437 68 0.0 1.0 0.00 0.00 0.00 81 1014.6
20260903065915 68 0.0 0.0 0.00 0.00 0.00 80 1014.6
20260903065415 68 0.0 1.0 0.00 0.00 0.00 80 1014.5
20260903064935 68 283 2.0 3.0 0.00 0.00 0.00 80 1014.5
20260903064415 68 0.0 0.0 0.00 0.00 0.00 80 1014.5
20260903063915 69 0.0 0.0 0.00 0.00 0.00 79 1014.5
20260903063415 69 0.0 0.0 0.00 0.00 0.00 79 1014.5
20260903062915 69 0.0 1.0 0.00 0.00 0.00 79 1014.5
20260903062435 69 260 3.0 5.0 0.00 0.00 0.00 79 1014.4
20260903061915 69 260 3.0 5.0 0.00 0.00 0.00 78 1014.4
20260903061415 69 260 4.0 7.0 0.00 0.00 0.00 78 1014.4
20260903060915 70 260 3.0 5.0 0.00 0.00 0.00 77 1014.4
20260903060415 70 260 4.0 7.0 0.00 0.00 0.00 77 1014.4
20260903055915 70 260 5.0 7.0 0.00 0.00 0.00 77 1014.4
20260903055415 69 260 6.0 9.0 0.00 0.00 0.00 77 1014.4
20260903054937 70 260 2.0 3.0 0.00 0.00 0.00 77 1014.4
20260903054435 69 260 6.0 8.0 0.00 0.00 0.00 77 1014.4
20260903053917 69 260 3.0 5.0 0.00 0.00 0.00 77 1014.4
20260903053417 69 260 2.0 3.0 0.00 0.00 0.00 77 1014.4
20260903052917 69 215 3.0 4.0 0.00 0.00 0.00 77 1014.3
20260903052415 69 215 3.0 4.0 0.00 0.00 0.00 77 1014.3
20260903051917 69 215 3.0 5.0 0.00 0.00 0.00 77 1014.3
20260903051417 70 238 3.0 5.0 0.00 0.00 0.00 77 1014.3
20260903050917 70 215 1.0 3.0 0.00 0.00 0.00 77 1014.3
20260903050417 70 238 3.0 4.0 0.00 0.00 0.00 77 1014.3
20260903045917 70 260 3.0 6.0 0.00 0.00 0.00 77 1014.3
20260903045417 70 170 3.0 5.0 0.00 0.00 0.00 76 1014.3
20260903044917 70 260 5.0 9.0 0.00 0.00 0.00 76 1014.3
20260903044417 70 260 2.0 4.0 0.00 0.00 0.00 75 1014.3
20260903043937 70 215 4.0 6.0 0.00 0.00 0.00 75 1014.3
20260903043417 70 260 3.0 5.0 0.00 0.00 0.00 75 1014.3
20260903042917 70 260 3.0 4.0 0.00 0.00 0.00 75 1014.3
20260903042417 70 260 3.0 3.0 0.00 0.00 0.00 75 1014.2
20260903041917 70 283 4.0 6.0 0.00 0.00 0.00 75 1014.3
20260903041417 70 238 3.0 4.0 0.00 0.00 0.00 74 1014.2
20260903040917 70 238 2.0 4.0 0.00 0.00 0.00 74 1014.2
20260903040417 70 238 1.0 3.0 0.00 0.00 0.00 73 1014.2
20260903035917 70 260 3.0 5.0 0.00 0.00 0.00 74 1014.2
20260903035417 70 238 1.0 2.0 0.00 0.00 0.00 74 1014.1
20260903034917 70 260 3.0 4.0 0.00 0.00 0.00 74 1014.0
20260903034437 70 260 2.0 6.0 0.00 0.00 0.00 74 1014.0
20260903033937 70 260 4.0 5.0 0.00 0.00 0.00 73 1013.9
20260903033417 70 283 3.0 4.0 0.00 0.00 0.00 72 1013.9
20260903032917 70 283 3.0 5.0 0.00 0.00 0.00 72 1013.9
20260903032417 70 283 3.0 5.0 0.00 0.00 0.00 72 1013.8
20260903031937 70 260 4.0 6.0 0.00 0.00 0.00 72 1013.8
20260903031417 70 260 4.0 7.0 0.00 0.00 0.00 73 1013.7
20260903030917 70 238 4.0 5.0 0.00 0.00 0.00 73 1013.7
20260903030417 70 283 3.0 5.0 0.00 0.00 0.00 72 1013.8
20260903025917 70 260 3.0 5.0 0.00 0.00 0.00 72 1013.8
20260903025417 70 283 2.0 2.0 0.00 0.00 0.00 72 1013.7
20260903024917 70 260 3.0 4.0 0.00 0.00 0.00 72 1013.7
20260903024437 70 260 4.0 4.0 0.00 0.00 0.00 72 1013.7
20260903023937 70 260 4.0 5.0 0.00 0.00 0.00 72 1013.7
20260903023417 70 260 5.0 6.0 0.00 0.00 0.00 72 1013.7
20260903022917 71 260 3.0 7.0 0.00 0.00 0.00 71 1013.7
20260903022417 71 283 6.0 8.0 0.00 0.00 0.00 70 1013.6
20260903021917 71 283 6.0 9.0 0.00 0.00 0.00 70 1013.7
20260903021417 72 283 5.0 6.0 0.00 0.00 0.00 69 1013.6
20260903020916 72 283 3.0 6.0 0.00 0.00 0.00 69 1013.6
20260903020417 72 283 5.0 8.0 0.00 0.00 0.00 67 1013.5
20260903015917 73 283 4.0 5.0 0.00 0.00 0.00 67 1013.5
20260903015437 73 238 4.0 6.0 0.00 0.00 0.00 67 1013.5
20260903014917 73 238 4.0 7.0 0.00 0.00 0.00 67 1013.6
20260903014437 73 260 9.0 12.0 0.00 0.00 0.00 65 1013.5
20260903013917 73 260 5.0 7.0 0.00 0.00 0.00 66 1013.5
20260903013417 74 283 7.0 9.0 0.00 0.00 0.00 66 1013.6
20260903012917 74 260 6.0 10.0 0.00 0.00 0.00 66 1013.6
20260903012417 74 260 7.0 12.0 0.00 0.00 0.00 66 1013.6
20260903011917 74 283 5.0 9.0 0.00 0.00 0.00 66 1013.6
20260903011417 74 260 4.0 6.0 0.00 0.00 0.00 66 1013.6
20260903010916 75 260 4.0 7.0 0.00 0.00 0.00 67 1013.5
20260903010417 75 260 4.0 6.0 0.00 0.00 0.00 68 1013.6
20260903005916 75 260 4.0 6.0 0.00 0.00 0.00 69 1013.5
20260903005417 75 283 7.0 9.0 0.00 0.00 0.00 68 1013.5
20260903004916 75 260 6.0 9.0 0.00 0.00 0.00 68 1013.5
20260903004417 76 260 7.0 10.0 0.00 0.00 0.00 66 1013.5
20260903003916 76 305 6.0 9.0 0.00 0.00 0.00 65 1013.5
20260903003417 76 283 6.0 8.0 0.00 0.00 0.00 65 1013.5
20260903002916 76 260 7.0 9.0 0.00 0.00 0.00 64 1013.5
20260903002417 76 260 7.0 11.0 0.00 0.00 0.00 63 1013.5
20260903001916 76 260 8.0 14.0 0.00 0.00 0.00 64 1013.5
20260903001416 76 260 8.0 13.0 0.00 0.00 0.00 63 1013.5
20260903000916 77 260 6.0 10.0 0.00 0.00 0.00 62 1013.5
20260903000417 77 260 8.0 11.0 0.00 0.00 0.00 61 1013.5
20260902235916 77 260 11.0 15.0 0.00 0.00 0.00 61 1013.6
20260902235416 77 283 8.0 11.0 0.00 0.00 0.00 60 1013.6
20260902234916 77 305 7.0 12.0 0.00 0.00 0.00 59 1013.6
20260902234417 78 260 7.0 8.0 0.00 0.00 0.00 58 1013.7
20260902233916 78 260 10.0 16.0 0.00 0.00 0.00 57 1013.7
20260902233417 78 283 8.0 12.0 0.00 0.00 0.00 53 1013.6
20260902232917 79 260 10.0 15.0 0.00 0.00 0.00 53 1013.7
20260902232416 79 260 8.0 11.0 0.00 0.00 0.00 51 1013.7
20260902231916 79 283 4.0 8.0 0.00 0.00 0.00 50 1013.7
20260902231417 79 260 6.0 10.0 0.00 0.00 0.00 49 1013.7
20260902230917 80 283 6.0 10.0 0.00 0.00 0.00 50 1013.8
20260902230417 80 260 6.0 10.0 0.00 0.00 0.00 49 1013.8
20260902225916 81 328 6.0 9.0 0.00 0.00 0.00 49 1013.7
20260902225417 81 283 6.0 8.0 0.00 0.00 0.00 47 1013.8
20260902224917 81 305 4.0 9.0 0.00 0.00 0.00 47 1013.8
20260902224417 81 260 5.0 12.0 0.00 0.00 0.00 48 1013.8
20260902223916 80 260 6.0 9.0 0.00 0.00 0.00 48 1013.9
20260902223436 81 260 3.0 7.0 0.00 0.00 0.00 49 1013.9
20260902222916 81 260 6.0 9.0 0.00 0.00 0.00 49 1014.0
20260902222417 81 260 8.0 10.0 0.00 0.00 0.00 50 1014.2
20260902221956 81 260 4.0 6.0 0.00 0.00 0.00 52 1014.2
20260902221416 81 170 3.0 5.0 0.00 0.00 0.00 53 1014.2
20260902220916 81 148 6.0 8.0 0.00 0.00 0.00 53 1014.3
20260902220416 81 215 4.0 7.0 0.00 0.00 0.00 54 1014.4
20260902215936 80 125 3.0 7.0 0.00 0.00 0.00 54 1014.4
20260902215416 80 238 5.0 6.0 0.00 0.00 0.00 54 1014.4
20260902214916 81 215 7.0 10.0 0.00 0.00 0.00 54 1014.6
20260902214436 81 215 5.0 8.0 0.00 0.00 0.00 55 1014.6
20260902213917 80 170 4.0 7.0 0.00 0.00 0.00 55 1014.7
20260902213416 80 170 6.0 8.0 0.00 0.00 0.00 55 1014.8
20260902212916 80 148 2.0 6.0 0.00 0.00 0.00 54 1014.8
20260902212416 80 148 5.0 7.0 0.00 0.00 0.00 53 1014.9
20260902211916 81 170 4.0 8.0 0.00 0.00 0.00 53 1014.9
20260902211416 81 148 4.0 8.0 0.00 0.00 0.00 52 1014.9
20260902210936 81 148 5.0 9.0 0.00 0.00 0.00 50 1015.0
20260902210436 81 215 2.0 7.0 0.00 0.00 0.00 50 1015.0
20260902205916 81 170 4.0 7.0 0.00 0.00 0.00 49 1015.0
20260902205436 82 148 4.0 6.0 0.00 0.00 0.00 48 1014.9
20260902204916 82 238 3.0 4.0 0.00 0.00 0.00 47 1015.0
20260902204436 81 238 4.0 7.0 0.00 0.00 0.00 50 1015.0
20260902203916 81 148 5.0 6.0 0.00 0.00 0.00 49 1015.1
20260902203456 80 238 5.0 8.0 0.00 0.00 0.00 49 1015.1
20260902202916 80 170 5.0 5.0 0.00 0.00 0.00 50 1015.1